Lapse_Rate
6.3 6.2 6.2 6.0 6.1 6.0 5.8 5.6 5.5 5.4 5.3 5.2 4.9 4.9 5.0 5.1 5.3 5.5 5.6 5.7 5.6 5.6 5.6 5.6 5.5 5.4 5.6 5.7 5.7 5.7 5.6 5.5 5.4 5.5 5.8 6.0 6.1 6.5 6.7 6.3 6.3 6.3 6.0
6.6 6.3 6.1 6.0 6.0 5.8 5.6 5.4 5.3 5.2 5.1 5.0 5.1 5.2 5.3 5.5 5.5 5.7 5.7 5.7 5.7 5.8 5.8 5.8 5.8 5.7 5.6 5.5 5.7 5.7 5.8 5.9 5.8 5.7 5.8 6.1 6.7 6.1 6.0 6.4 6.2 6.3 6.3
6.4 6.4 6.3 6.0 5.7 5.5 5.3 5.2 5.0 4.8 4.7 4.9 5.1 5.2 5.3 5.4 5.5 5.3 5.4 5.4 5.4 5.6 5.8 5.8 6.0 6.0 6.0 5.9 5.9 5.9 5.9 6.0 6.0 5.9 5.7 5.8 6.1 6.4 6.7 6.0 5.7 6.0 6.2
6.5 6.5 6.3 6.0 5.7 5.4 5.2 5.1 4.9 4.9 5.0 5.1 5.2 5.3 5.3 5.2 5.2 5.4 5.3 5.4 5.5 5.6 5.7 5.9 5.9 6.0 6.0 6.1 6.1 6.1 6.1 6.0 6.0 6.0 5.9 5.7 5.6 5.6 6.2 6.7 6.5 5.7 5.5
6.3 6.4 6.3 5.9 5.6 5.4 5.3 5.1 5.1 5.1 5.0 5.1 5.2 5.1 5.0 5.1 5.0 5.3 5.4 5.7 5.8 5.9 6.0 6.0 6.0 6.1 6.0 6.1 6.1 6.1 6.1 6.0 6.1 5.9 5.8 5.8 5.6 5.3 5.0 5.8 6.2 6.3 6.0
6.2 6.2 6.2 6.1 5.7 5.5 5.3 5.2 5.1 5.0 5.1 5.2 5.2 5.1 5.0 5.2 5.3 5.4 5.6 5.7 5.8 5.9 5.9 6.0 6.2 6.4 6.3 6.2 6.1 6.1 6.1 6.0 6.1 6.2 6.3 6.4 6.2 6.3 6.2 5.4 5.2 5.7 6.2
6.4 6.1 6.2 6.2 6.1 5.7 5.5 5.3 5.2 5.2 5.4 5.4 5.2 5.1 5.3 5.4 5.4 5.4 5.6 5.7 5.8 6.0 6.0 6.1 6.3 6.3 6.3 6.3 6.3 6.3 6.4 6.5 6.5 6.7 6.7 6.5 6.1 5.8 5.9 6.0 6.1 5.4 5.7
6.5 6.5 6.5 6.4 6.4 5.9 5.6 5.3 5.3 5.5 5.5 5.3 5.2 5.3 5.3 5.3 5.4 5.5 5.6 5.7 5.8 5.9 6.1 6.3 6.3 6.4 6.4 6.4 6.3 6.5 6.7 6.7 6.6 6.4 6.3 6.4 6.1 6.1 6.0 5.9 5.8 6.6 5.7
6.7 6.8 6.8 6.6 6.5 6.0 5.7 5.5 5.6 5.6 5.6 5.4 5.3 5.4 5.5 5.6 5.6 5.6 5.7 5.7 5.8 6.1 6.3 6.2 6.2 6.3 6.5 6.5 6.5 6.8 6.9 6.8 6.5 6.3 6.2 6.2 6.2 6.3 6.2 6.1 5.5 5.3 6.1
6.9 6.9 6.5 6.8 6.4 6.2 5.9 5.8 5.7 5.7 5.5 5.3 5.5 5.7 5.8 5.9 5.7 5.7 5.8 5.9 6.0 6.2 6.2 6.1 6.2 6.3 6.4 6.4 6.5 6.8 7.0 6.8 6.5 6.2 6.0 6.0 6.2 6.3 6.1 6.0 5.6 5.4 5.5
6.8 6.7 6.6 6.7 6.4 6.3 6.1 5.9 5.8 5.6 5.5 5.6 5.8 5.9 5.9 5.8 5.7 5.8 5.8 6.0 6.1 6.1 6.1 6.1 6.3 6.4 6.5 6.5 6.7 6.9 6.9 6.8 6.6 6.3 6.2 6.1 6.1 6.3 5.9 5.6 5.7 5.6 5.5
6.6 6.6 6.7 6.6 6.4 6.2 6.0 5.8 5.6 5.6 5.6 5.8 6.0 6.0 6.0 5.8 5.8 5.9 6.0 6.1 6.1 6.1 6.2 6.4 6.6 6.6 6.6 6.8 7.0 7.0 6.9 6.8 6.7 6.5 6.3 6.1 5.9 6.1 6.2 5.9 5.8 5.6 5.7
6.6 6.6 6.7 6.6 6.6 6.5 6.0 5.7 5.6 5.5 5.6 5.9 5.9 6.0 5.9 5.9 6.0 6.1 6.1 6.1 6.2 6.4 6.6 6.8 7.0 7.1 7.4 7.5 7.5 7.3 7.1 6.9 6.6 6.6 6.4 6.1 6.0 5.9 6.0 6.0 5.9 5.6 5.5
6.7 6.7 6.6 6.5 6.8 6.5 6.1 5.6 5.5 5.5 5.8 5.9 5.9 6.0 6.0 6.1 6.1 6.1 6.2 6.3 6.5 6.8 7.2 7.6 7.8 7.8 7.8 7.8 7.6 7.4 7.2 6.9 6.6 6.4 6.4 6.3 6.0 5.8 5.8 5.8 5.8 5.6 5.5
6.7 6.8 6.8 6.9 6.9 6.4 5.9 5.5 5.5 5.8 5.9 6.0 6.1 6.1 6.1 6.1 6.1 6.1 6.3 6.6 7.0 7.4 7.6 7.8 7.9 7.8 7.8 7.9 7.7 7.6 7.4 7.1 6.9 6.6 6.4 6.3 6.1 5.9 5.7 5.6 5.7 5.6 5.5
6.5 6.8 6.9 7.0 6.8 6.3 5.8 5.7 5.7 5.9 6.0 6.1 6.1 6.1 6.0 6.1 6.2 6.3 6.7 7.0 7.2 7.3 7.3 7.3 7.6 7.5 7.5 7.7 7.4 7.5 7.5 7.3 7.0 6.7 6.4 6.3 6.2 6.0 6.0 5.7 5.6 5.4 5.7
6.7 6.9 6.8 6.7 6.8 6.3 5.8 5.8 5.8 5.9 6.0 6.1 6.1 6.0 6.1 6.2 6.3 6.7 7.0 7.0 7.1 7.1 7.1 7.0 7.1 7.0 7.0 7.2 7.0 7.1 7.1 6.9 6.8 6.7 6.3 6.1 6.0 6.0 6.0 6.0 5.9 5.7 5.4
7.0 6.7 6.6 6.9 6.7 6.1 5.9 5.7 5.8 6.0 6.1 6.1 6.1 6.1 6.3 6.4 6.8 7.0 7.0 7.0 7.0 7.0 6.9 6.8 6.6 6.6 6.5 6.6 6.2 6.2 6.1 6.0 5.9 5.9 5.8 5.6 5.6 5.6 5.7 5.9 6.1 5.8 5.6
6.7 6.7 6.9 6.7 6.2 5.9 5.8 5.8 6.0 6.1 6.1 6.1 6.1 6.3 6.5 6.8 7.1 7.0 6.9 6.9 6.9 6.9 6.8 6.6 6.3 6.1 6.0 5.9 5.5 5.4 5.3 5.3 5.3 5.2 5.1 5.0 5.0 5.1 5.1 5.4 5.7 5.8 5.7
6.9 7.0 6.7 6.2 6.0 5.9 5.8 6.0 6.1 6.2 6.1 6.1 6.3 6.5 7.0 7.1 7.0 6.9 7.0 7.0 6.9 6.8 6.6 6.4 5.9 5.5 5.2 4.9 4.8 4.7 4.6 4.5 4.6 4.6 4.5 4.6 4.5 4.6 4.6 4.9 5.3 5.7 5.9
7.0 6.8 6.3 5.8 5.8 5.7 6.0 6.1 6.2 6.1 6.1 6.3 6.5 7.0 7.1 7.0 7.0 7.1 7.1 7.0 6.9 6.7 6.4 6.0 5.5 5.1 4.9 4.7 4.6 4.4 4.3 4.2 4.0 4.0 3.8 4.0 4.1 4.3 4.3 4.3 4.9 5.1 5.6
6.8 6.2 5.9 5.7 5.8 6.0 6.1 6.1 6.0 6.1 6.3 6.5 6.9 7.1 6.9 7.0 7.0 7.1 7.0 7.0 6.8 6.5 6.2 5.9 5.5 5.0 4.7 4.6 4.5 4.4 4.2 4.0 3.7 3.5 3.3 3.3 3.6 3.8 4.1 4.0 4.4 4.6 4.9
6.2 5.9 5.8 5.9 6.1 6.1 6.0 5.9 6.0 6.2 6.5 7.0 7.1 6.9 6.9 7.0 7.1 7.1 7.0 6.9 6.7 6.4 6.1 5.7 5.4 5.0 4.6 4.6 4.5 4.5 4.3 4.2 3.8 3.4 3.4 3.5 3.6 3.5 3.9 3.8 3.9 4.4 4.5
6.0 6.0 6.0 6.1 6.0 5.9 5.9 6.0 6.2 6.5 6.9 7.1 6.9 6.8 6.9 7.0 7.1 7.0 6.9 6.7 6.5 6.2 5.9 5.6 5.3 4.9 4.6 4.5 4.4 4.4 4.3 4.2 4.1 4.1 4.3 4.2 4.2 3.4 3.5 3.5 3.6 3.9 4.2
6.1 6.2 6.1 6.0 5.8 5.9 5.9 6.1 6.3 6.8 7.0 6.9 6.7 6.8 6.9 7.0 7.0 6.9 6.8 6.5 6.4 6.0 5.6 5.3 5.1 4.8 4.6 4.3 4.2 4.1 3.9 4.0 4.1 4.4 4.8 4.7 4.5 3.8 3.4 3.4 3.6 3.8 4.2
6.1 6.0 5.9 5.8 5.8 5.9 6.0 6.2 6.6 6.8 6.8 6.7 6.7 6.8 6.8 6.9 6.8 6.7 6.5 6.5 6.4 6.0 5.5 5.0 4.9 4.6 4.3 4.2 4.1 4.0 3.9 4.1 4.6 5.0 5.0 4.8 4.5 4.1 3.4 3.2 3.5 3.5 3.9
Wind_Speed
13 12 10 9 9 7 7 6 7 7 5 6 6 5 5 5 5 9 11 13 15 15 15 13 12 13 10 11 12 11 13 11 12 12 13 12 16 14 12 11 12 11 13
15 13 11 9 7 7 6 6 6 7 7 5 5 4 5 5 5 8 9 11 12 14 13 13 10 12 10 12 12 13 11 11 11 12 12 8 13 8 14 13 13 16 10
16 14 12 10 9 7 6 6 6 7 7 7 5 5 4 5 5 7 7 12 12 13 13 14 13 11 9 10 12 12 14 10 10 13 6 6 6 14 11 16 14 17 15
17 15 14 12 10 8 6 6 6 6 6 8 6 7 6 7 7 6 8 9 13 13 13 14 15 13 9 10 10 10 10 10 10 9 6 11 10 6 11 10 14 16 16
18 17 15 13 11 9 7 5 6 5 5 6 7 6 7 7 7 8 11 10 11 13 13 15 16 13 10 10 11 11 11 7 8 10 11 12 10 13 12 16 14 14 14
18 17 15 13 11 8 7 6 5 5 5 5 6 7 8 9 8 8 8 8 8 8 14 16 15 16 14 11 11 11 11 9 11 9 10 9 9 10 12 14 15 18 15
19 18 17 14 13 11 9 7 4 5 4 4 5 6 7 8 9 9 8 11 8 8 9 14 13 11 14 13 14 12 10 10 10 12 10 9 9 10 11 12 14 14 14
19 19 18 16 13 11 10 7 6 4 4 4 4 5 7 6 6 8 8 8 8 9 15 14 16 18 17 14 14 9 10 11 9 14 11 10 11 10 10 11 12 15 14
20 20 19 16 14 12 10 7 5 4 3 3 4 6 7 7 7 9 8 7 9 10 12 15 13 17 14 14 13 10 11 11 11 12 12 11 10 10 10 10 10 10 15
20 18 17 15 12 11 10 7 5 3 3 4 5 6 7 7 8 7 9 10 10 12 12 12 13 14 12 15 14 11 11 13 10 11 14 13 11 12 10 10 10 10 13
19 18 16 15 13 11 11 8 5 4 3 3 4 5 6 6 7 7 9 9 11 10 11 11 12 14 13 13 13 13 14 16 15 15 14 16 15 11 10 10 10 11 11
18 17 16 15 13 11 9 8 5 4 2 3 4 5 5 6 6 7 8 9 11 11 10 11 12 12 13 13 14 12 15 16 16 16 16 16 12 15 14 10 14 13 14
20 18 17 15 10 10 9 8 5 3 2 3 2 3 4 6 7 8 9 10 10 11 10 11 11 12 12 13 11 14 15 16 16 15 15 15 15 14 11 13 12 13 13
20 18 17 13 9 8 6 7 5 3 1 1 2 3 4 6 7 8 9 9 10 10 11 10 11 11 12 12 12 15 16 16 16 15 14 14 14 15 15 13 14 13 15
20 19 17 14 13 11 9 8 6 3 1 1 2 3 4 5 6 7 9 9 10 10 10 9 9 11 12 8 12 15 17 17 17 13 15 13 17 23 18 12 15 17 15
20 19 18 16 15 13 11 8 5 3 1 1 2 3 4 6 6 8 9 10 10 10 11 10 9 12 10 11 17 18 15 18 16 13 13 14 16 16 22 24 27 23 16
19 19 17 16 13 11 9 8 5 4 2 1 2 3 5 6 7 8 9 10 10 11 11 11 11 13 13 15 19 22 15 15 13 13 14 12 10 15 15 23 26 24 24
19 17 15 13 12 10 8 7 5 4 2 2 2 4 5 6 8 8 9 10 10 11 11 11 12 12 11 16 19 23 18 15 15 15 15 13 13 14 20 19 18 17 15
17 16 14 13 12 10 8 7 6 4 3 2 3 4 5 7 8 8 9 9 10 10 10 11 13 13 13 18 20 21 17 16 18 16 16 13 13 23 29 19 17 18 15
17 16 16 13 11 10 8 8 5 4 3 3 3 4 5 7 7 8 9 9 10 10 10 11 12 13 13 18 20 20 12 15 13 16 16 20 18 27 28 17 15 16 17
18 17 15 12 11 9 8 7 6 4 3 2 3 4 6 6 7 8 8 9 10 10 11 12 13 14 14 15 20 25 14 12 13 12 12 13 26 28 27 24 13 17 18
18 16 13 12 11 9 8 8 6 4 3 3 3 4 6 6 6 8 8 10 10 10 11 12 11 11 14 18 18 25 24 24 14 14 12 15 28 26 25 18 25 26 15
15 13 12 12 10 8 7 8 6 5 3 4 5 6 6 7 7 8 9 8 9 9 10 10 10 11 11 11 22 25 26 24 15 12 21 28 23 24 17 23 23 18 11
13 12 13 12 10 8 7 8 6 4 5 5 4 5 4 6 6 6 6 6 6 7 9 9 10 10 11 11 12 12 12 20 15 18 15 15 15 16 15 14 14 11 11
12 12 11 11 11 9 8 7 6 4 5 4 2 3 3 4 5 5 4 5 5 5 7 7 9 10 10 12 19 17 13 12 13 16 11 10 11 11 11 12 13 12 12
12 11 11 11 10 9 8 7 5 5 3 3 2 3 3 4 4 5 6 5 1 4 7 9 10 9 16 24 24 23 24 23 21 11 10 11 11 12 12 12 12 12 14
Wind_Direction
156 160 143 141 121 110 96 75 67 46 34 38 27 14 3 11 8 6 1 1 356 356 346 349 346 349 341 338 340 338 332 330 332 323 324 311 280 278 271 303 295 284 261
171 167 162 150 131 119 110 98 78 56 38 45 28 6 358 352 355 357 348 5 351 350 344 344 342 348 337 340 345 339 336 329 343 327 313 319 315 304 339 320 320 321 325
183 177 169 159 148 132 121 102 85 68 51 11 25 6 352 350 357 348 348 351 350 347 346 344 342 337 342 338 341 339 341 327 328 334 325 325 314 322 300 319 309 323 317
187 180 178 169 156 140 127 105 82 64 56 32 27 10 360 353 348 341 345 335 341 341 342 342 342 335 339 335 330 328 325 323 320 324 316 314 309 314 308 295 305 300 296
187 183 182 172 161 151 136 119 108 80 64 45 25 7 4 350 340 337 338 331 341 336 342 342 340 336 335 341 325 322 328 323 315 307 309 310 300 293 286 298 307 303 300
189 185 183 164 156 152 149 138 132 102 73 45 30 15 360 344 340 339 327 339 328 342 347 334 339 337 337 333 325 322 315 320 316 315 315 311 313 308 306 299 302 298 299
189 187 179 181 165 164 157 153 142 117 87 49 24 5 354 338 337 339 339 332 335 338 334 339 342 330 326 324 322 319 318 319 315 318 309 302 297 298 296 296 295 290 298
187 188 181 188 169 163 160 160 147 123 82 46 15 2 356 349 337 347 335 326 334 330 337 344 331 321 328 334 317 318 320 319 318 311 306 305 299 297 293 292 298 298 292
187 189 184 184 167 169 160 157 150 120 95 44 13 1 355 348 342 335 331 337 329 333 339 333 325 321 328 333 316 320 320 330 317 307 311 309 302 298 294 292 290 288 296
186 188 182 171 173 168 154 148 143 120 84 25 13 360 348 347 337 331 336 335 334 327 340 338 325 320 334 329 324 329 334 319 327 316 313 305 303 303 296 292 290 286 284
184 186 176 172 175 168 160 151 146 130 61 15 4 355 346 340 338 335 337 341 327 337 337 326 332 326 335 331 325 336 325 328 320 313 310 306 305 302 303 299 295 290 290
186 184 173 172 175 174 161 152 146 128 81 30 354 347 339 336 346 343 336 341 330 335 334 335 336 325 334 326 332 337 331 322 320 314 312 310 311 307 305 302 302 299 297
184 180 174 175 172 164 160 152 142 110 17 360 345 355 333 339 343 343 341 332 334 332 337 341 335 332 331 322 338 340 329 321 317 315 311 311 310 306 305 309 306 306 300
184 181 173 143 136 157 155 152 146 135 280 349 346 355 343 341 343 341 335 332 331 331 336 340 332 336 320 330 347 337 328 322 316 311 315 313 314 312 312 316 312 309 308
186 181 177 158 174 176 169 165 157 153 186 26 346 354 350 341 344 339 328 333 331 330 332 335 339 336 321 9 350 341 329 319 312 312 320 316 313 314 323 320 315 314 306
188 177 178 168 180 173 166 154 150 139 101 53 358 2 347 347 346 337 333 333 330 332 333 334 358 327 328 13 352 346 327 313 314 321 323 320 322 323 321 321 314 307 306
182 179 176 170 165 164 151 150 145 135 109 48 12 3 356 344 344 342 338 336 334 333 333 336 1 323 331 19 352 345 319 318 321 328 323 324 328 329 331 319 316 311 308
171 170 160 155 155 146 136 132 138 123 127 64 10 8 356 346 346 341 340 335 338 333 338 338 343 328 342 15 354 345 328 326 330 329 322 328 331 337 332 323 318 316 314
157 153 147 153 149 143 139 137 136 139 117 55 20 6 355 349 342 345 338 338 334 337 338 344 334 336 334 8 352 344 337 332 331 328 327 330 337 340 331 323 322 318 320
141 144 145 146 142 139 144 136 137 131 90 46 15 2 360 349 345 338 335 339 335 339 337 344 334 344 345 354 351 346 336 333 332 326 323 331 338 335 328 325 325 325 327
138 139 147 145 133 137 139 138 135 104 80 54 22 9 2 353 345 339 340 345 342 342 343 340 339 342 350 347 350 347 340 338 328 326 324 330 330 330 328 329 327 327 330
140 147 139 135 135 140 148 135 114 109 94 54 35 22 12 358 349 343 353 350 348 345 343 342 339 341 341 347 350 344 341 336 333 324 329 323 322 331 328 330 335 336 331
146 144 137 133 127 131 135 121 109 110 93 55 28 23 9 355 3 350 1 352 352 348 344 343 339 338 337 341 348 339 338 338 332 330 324 316 329 335 333 340 341 340 344
147 142 141 136 128 123 112 109 116 115 96 87 43 16 10 348 9 346 0 352 357 350 344 342 339 334 335 342 341 336 335 336 334 334 316 330 338 339 339 341 343 342 349
145 147 138 137 136 133 124 117 115 122 113 99 48 34 1 6 353 358 1 345 3 360 340 338 334 335 335 338 333 334 337 332 333 324 330 342 344 343 344 344 344 342 346
145 142 139 140 142 135 126 119 116 105 101 148 106 56 350 357 359 350 347 134 251 282 312 328 334 335 337 335 332 337 338 332 340 335 343 344 345 343 344 344 344 343 344